Williston, ND

11:12 AM CST on February 19, 2017 (GMT -0600)
Sloulin International

Weather History for KISN - December, 2014

Change the Weather History Date:

Wednesday, December 31, 2014

  Actual Average Record
Temperature  
Mean Temperature 15 °F 11 °F  
Max Temperature 28 °F 22 °F 51 °F (1963)
Min Temperature 1 °F 0 °F -31 °F (1967)
Degree Days  
Heating Degree Days 50 54  
Month to date heating degree days 1401 1585  
Since 1 July heating degree days 3594 3747  
Cooling Degree Days 0 0  
Month to date cooling degree days 0 0  
Year to date cooling degree days 425 456  
Moisture  
Dew Point 9 °F    
Average Humidity 67    
Maximum Humidity 75    
Minimum Humidity 58    
Precipitation  
Precipitation 0.00 in 0.02 in 0.60 in (1975)
Month to date precipitation 0.03 0.62  
Year to date precipitation 10.68 14.37  
Snow  
Snow 0.00 in - - ()
Snow Depth -    
Sea Level Pressure  
Sea Level Pressure 30.18 in    
Wind  
Wind Speed 14 mph (WSW)    
Max Wind Speed 23 mph    
Max Gust Speed 28 mph    
Visibility 10 miles    
Events      
T = Trace of Precipitation, MM = Missing Value Source: NWS Daily Summary

Daily Weather History Graph

Daily Weather History Graph

Search for Another Location

Airport or City:

Trip Planner

Search our weather history database for the weather conditions in past years. The results will help you decide how hot, cold, wet, or windy it might be!

Date:

Astronomy

Dec. 31, 2014 Rise Set
Actual Time 8:45 AM CST 5:10 PM CST
Civil Twilight 8:08 AM CST 5:46 PM CST
Nautical Twilight 7:29 AM CST 6:26 PM CST
Astronomical Twilight 6:51 AM CST 7:04 PM CST
Moon 2:14 PM CST (12/31) 4:01 AM CST (12/31)
Length of Visible Light 9h 37m
Length of Day
8h 25m
Waxing Gibbous, 80% of the Moon is Illuminated
Dec 31
Waxing Gibbous
Jan 4
Full
Jan 13
Last Quarter
Jan 20
New
Jan 26
First Quarter

Hourly Weather History & Observations

Time (CST) Temp. Windchill Dew Point Humidity Pressure Visibility Wind Dir Wind Speed Gust Speed Precip Events Conditions
12:52 AM 1.9 °F -17.5 °F -6.0 °F 69% 30.35 in 10.0 mi SSW 16.1 mph - N/A   Partly Cloudy
1:52 AM 1.0 °F -14.9 °F -6.0 °F 72% 30.33 in 10.0 mi SW 10.4 mph - N/A   Clear
2:52 AM 1.9 °F -7.6 °F -6.0 °F 69% 30.31 in 10.0 mi SSE 4.6 mph - N/A   Partly Cloudy
3:52 AM 3.0 °F -11.5 °F -5.1 °F 69% 30.28 in 10.0 mi SSW 9.2 mph - N/A   Overcast
4:52 AM 9.0 °F -5.9 °F -2.0 °F 61% 30.26 in 10.0 mi WSW 11.5 mph - N/A   Overcast
5:52 AM 10.9 °F -4.1 °F 1.0 °F 64% 30.26 in 10.0 mi WSW 12.7 mph - N/A   Overcast
6:52 AM 10.9 °F -2.6 °F 1.9 °F 67% 30.27 in 10.0 mi West 10.4 mph - N/A   Overcast
7:52 AM 12.9 °F -0.2 °F 5.0 °F 71% 30.27 in 10.0 mi WSW 10.4 mph - N/A   Overcast
8:37 AM 12.0 °F -3.4 °F 5.0 °F 73% 30.12 in 10.0 mi West 13.8 mph - N/A   Mostly Cloudy
8:52 AM 12.0 °F -1.3 °F 3.9 °F 70% 30.28 in 10.0 mi West 10.4 mph - N/A   Partly Cloudy
9:52 AM 12.0 °F 4.1 °F 5.0 °F 73% 30.29 in 10.0 mi WSW 4.6 mph - N/A   Clear
10:52 AM 18.0 °F 3.6 °F 9.0 °F 68% 30.30 in 10.0 mi West 15.0 mph - N/A   Overcast
11:02 AM 18.0 °F 4.2 °F 10.0 °F 71% 30.17 in 10.0 mi West 13.8 mph - N/A   Overcast
11:52 AM 19.9 °F 5.7 °F 12.0 °F 71% 30.28 in 10.0 mi West 16.1 mph - N/A   Overcast
12:52 PM 23.0 °F 9.2 °F 14.0 °F 68% 30.25 in 10.0 mi West 17.3 mph - N/A   Overcast
1:32 PM 25.0 °F 12.2 °F 14.0 °F 63% 30.12 in 10.0 mi West 16.1 mph - N/A   Overcast
1:52 PM 26.1 °F 13.6 °F 15.1 °F 63% 30.23 in 10.0 mi West 16.1 mph 24.2 mph N/A   Overcast
2:00 PM 26.1 °F 13.6 °F 15.1 °F 63% 30.10 in 10.0 mi WNW 16.1 mph 25.3 mph N/A   Overcast
2:33 PM 26.1 °F 13.6 °F 15.1 °F 63% 30.09 in 10.0 mi West 16.1 mph 25.3 mph N/A   Scattered Clouds
2:52 PM 26.1 °F 13.6 °F 15.1 °F 63% 30.21 in 10.0 mi WNW 16.1 mph - N/A   Clear
3:52 PM 26.1 °F 14.0 °F 15.1 °F 63% 30.18 in 10.0 mi West 15.0 mph 25.3 mph N/A   Clear
4:52 PM 25.0 °F 13.1 °F 15.1 °F 66% 30.17 in 10.0 mi West 13.8 mph - N/A   Clear
5:52 PM 27.0 °F 14.3 °F 17.1 °F 66% 30.14 in 10.0 mi West 17.3 mph 26.5 mph N/A   Overcast
6:52 PM 27.0 °F 13.9 °F 17.1 °F 66% 30.10 in 10.0 mi WSW 18.4 mph 25.3 mph N/A   Overcast
7:52 PM 28.0 °F 14.3 °F 17.1 °F 63% 30.06 in 10.0 mi WSW 21.9 mph 27.6 mph N/A   Overcast
8:52 PM 28.0 °F 16.1 °F 17.1 °F 63% 30.06 in 10.0 mi WSW 16.1 mph - N/A   Overcast
9:52 PM 28.0 °F 15.7 °F 16.0 °F 61% 30.03 in 10.0 mi WSW 17.3 mph - N/A   Overcast
10:52 PM 26.1 °F 13.1 °F 16.0 °F 66% 29.98 in 10.0 mi WSW 17.3 mph 26.5 mph N/A   Overcast
11:52 PM 27.0 °F 14.3 °F 16.0 °F 63% 29.96 in 10.0 mi West 17.3 mph 26.5 mph N/A   Overcast